Latest Weather Observations for Dennes Point

IDT60901

Issued at 10:15 pm EST Wednesday 23 April 2014 (issued every 10 minutes, with the page automatically refreshed every 10 minutes)

About weather observations | Map of Hobart area stations | Latest observations for Hobart area | Other Formats
Station Details ID: 094255 Name: DENNES POINT Lat: -43.06 Lon: 147.36 Height: 5.67 m
Data from the previous 72 hours. | See also: Recent months at Dennes Point
Date/Time
EST
Tmp

°C
App
Tmp
°C
Dew
Point
°C
Rel
Hum
%
Delta-T

°C
Wind Press
QNH
hPa
Press
MSL
hPa
Rain
since
9 am
mm
Dir
 
Spd
km/h
Gust
km/h
Spd
kts
Gust
kts
23/10:00pm 14.2 8.3 7.7 65 3.2 NNE 28 37 15 20 1005.0 1004.9 0.0
23/09:30pm 14.6 8.6 8.5 67 3.1 NNE 30 37 16 20 1005.5 - 0.0
23/09:00pm 15.0 10.3 7.8 62 3.6 NNE 22 30 12 16 1005.9 1005.8 0.0
23/08:30pm 14.9 10.7 7.5 61 3.7 N 19 26 10 14 1006.1 - 0.0
23/08:00pm 15.3 10.3 6.6 56 4.2 N 22 33 12 18 1006.6 1006.5 0.0
23/07:30pm 15.3 11.6 7.8 61 3.7 N 17 20 9 11 1006.9 - 0.0
23/07:00pm 15.4 11.1 6.9 57 4.2 N 19 22 10 12 1007.0 1006.9 0.0
23/06:30pm 15.2 12.2 6.0 54 4.4 NNW 11 15 6 8 1007.2 - 0.0
23/06:00pm 15.1 12.2 6.7 57 4.1 NNW 11 13 6 7 1007.5 1007.4 0.0
23/05:30pm 15.5 12.6 6.5 55 4.4 NNW 11 15 6 8 1007.5 - 0.0
23/05:00pm 15.8 12.7 7.3 57 4.2 N 13 19 7 10 1007.6 1007.5 0.0
23/04:30pm 16.0 13.3 7.5 57 4.2 N 11 15 6 8 1008.1 - 0.0
23/04:00pm 15.9 14.7 7.9 59 4.0 NNW 4 9 2 5 1008.3 1008.2 0.0
23/03:30pm 16.0 14.6 8.7 62 3.7 N 6 7 3 4 1008.5 - 0.0
23/03:00pm 15.8 14.1 8.5 62 3.7 N 7 11 4 6 1008.8 1008.7 0.0
23/02:30pm 16.3 13.4 6.7 53 4.7 NNW 11 17 6 9 1009.1 - 0.0
23/02:00pm 16.2 12.1 6.3 52 4.8 WNW 17 24 9 13 1009.7 1009.7 0.0
23/01:30pm 15.9 13.4 8.2 60 3.9 N 11 17 6 9 1010.0 - 0.0
23/01:00pm 15.8 11.3 6.8 55 4.4 N 20 26 11 14 1010.3 1010.3 0.0
23/12:30pm 15.6 11.4 8.1 61 3.8 N 20 28 11 15 1010.6 - 0.0
23/12:00pm 15.0 11.9 7.1 59 3.9 N 13 17 7 9 1011.2 1011.2 0.0
23/11:30am 14.4 9.7 7.7 64 3.3 N 22 26 12 14 1011.7 - 0.0
23/11:00am 14.0 10.0 8.4 69 2.8 NNE 19 24 10 13 1012.1 1012.1 0.0
23/10:30am 13.8 10.2 8.4 70 2.7 NNE 17 22 9 12 1012.4 - 0.0
23/10:00am 13.1 8.5 8.0 71 2.5 N 22 26 12 14 1013.0 1013.0 0.0
23/09:30am 12.4 7.7 7.7 73 2.3 N 22 28 12 15 1013.5 - 0.0
23/09:00am 12.6 9.6 7.9 73 2.3 NNE 13 22 7 12 1013.6 1013.6 0.0
23/08:30am 11.6 9.7 6.5 71 2.4 SSW 6 11 3 6 1013.8 - 0.0
23/08:00am 11.1 9.3 7.0 76 2.0 SW 6 9 3 5 1013.8 1013.8 0.0
23/07:30am 11.8 8.6 6.9 72 2.3 N 13 17 7 9 1013.5 - 0.0
23/07:00am 9.9 7.7 6.3 78 1.7 SSW 7 9 4 5 1013.6 1013.6 0.0
23/06:30am 11.7 8.9 5.3 65 2.9 NNW 9 11 5 6 1013.4 - 0.0
23/06:00am 10.3 8.4 4.9 69 2.4 W 4 7 2 4 1013.6 1013.6 0.0
23/05:30am 10.0 7.5 5.0 71 2.3 SSW 7 9 4 5 1013.7 - 0.0
23/05:00am 9.5 7.1 6.9 84 1.2 S 9 13 5 7 1013.6 1013.6 0.0
23/04:30am 9.0 6.5 6.6 85 1.1 S 9 11 5 6 1013.5 - 0.0
23/04:00am 9.8 7.9 7.4 85 1.1 SSW 7 9 4 5 1013.4 1013.4 0.0
23/03:30am 10.3 8.4 7.4 82 1.4 SSW 7 9 4 5 1013.2 - 0.0
23/03:00am 10.5 8.3 6.3 75 2.0 SSW 7 9 4 5 1013.3 1013.3 0.0
23/02:30am 11.4 10.4 5.5 67 2.7 CALM 0 4 0 2 1013.3 - 0.0
23/02:00am 11.0 9.0 6.4 73 2.2 W 6 9 3 5 1013.4 1013.4 0.0
23/01:30am 11.2 9.4 5.5 68 2.6 W 4 7 2 4 1013.2 - 0.0
23/01:00am 11.8 9.6 6.1 68 2.7 W 7 11 4 6 1013.2 1013.2 0.0
23/12:30am 12.7 10.6 6.5 66 3.0 NW 7 11 4 6 1013.2 - 0.0
23/12:00am 11.8 10.4 5.4 65 3.0 SSE 2 7 1 4 1013.1 1013.1 0.0
 
Date/Time
EST
Tmp

°C
App
Tmp
°C
Dew
Point
°C
Rel
Hum
%
Delta-T

°C
Wind Press
QNH
hPa
Press
MSL
hPa
Rain
since
9 am
mm
Dir
 
Spd
km/h
Gust
km/h
Spd
kts
Gust
kts
22/11:30pm 12.8 10.5 4.8 58 3.7 NW 6 9 3 5 1013.2 - 0.0
22/11:00pm 13.3 10.8 4.5 55 4.0 NW 7 11 4 6 1013.0 1013.0 0.0
22/10:30pm 12.9 8.9 4.8 58 3.7 W 15 20 8 11 1013.0 - 0.0
22/10:00pm 13.4 9.8 5.1 57 3.9 NW 13 19 7 10 1012.8 1012.8 0.0
22/09:30pm 13.5 9.1 4.9 56 4.0 NW 17 24 9 13 1012.4 - 0.0
22/09:00pm 13.5 9.0 4.4 54 4.2 W 17 22 9 12 1012.2 1012.2 0.0
22/08:30pm 13.6 7.6 5.5 58 3.8 W 26 35 14 19 1011.7 - 0.0
22/08:00pm 13.6 8.2 6.2 61 3.5 WSW 24 32 13 17 1011.5 1011.5 0.0
22/07:30pm 13.9 8.9 6.3 60 3.6 WSW 22 30 12 16 1011.3 - 0.0
22/07:00pm 14.2 8.9 7.0 62 3.5 WSW 24 32 13 17 1010.8 1010.8 0.0
22/06:30pm 14.8 12.1 5.6 54 4.4 WNW 9 13 5 7 1010.2 - 0.0
22/06:00pm 14.8 12.5 5.9 55 4.3 WNW 7 11 4 6 1009.6 1009.6 0.0
22/05:30pm 15.0 11.3 4.7 50 4.8 WNW 13 19 7 10 1009.1 - 0.0
22/05:00pm 14.9 10.7 4.0 48 5.0 W 15 24 8 13 1008.8 1008.7 0.0
22/04:30pm 15.5 10.2 4.8 49 5.0 W 22 32 12 17 1008.5 - 0.0
22/04:00pm 16.0 9.1 4.4 46 5.4 W 30 41 16 22 1008.2 1008.1 0.0
22/03:30pm 16.2 8.3 4.6 46 5.5 W 35 57 19 31 1008.2 - 0.0
22/03:24pm 16.3 8.8 4.7 46 5.5 W 33 54 18 29 1008.2 - 0.0
22/03:00pm 16.6 8.3 4.3 44 5.8 W 37 54 20 29 1008.0 1007.9 0.0
22/02:53pm 16.6 9.0 5.6 48 5.3 W 35 54 19 29 1007.9 - 0.0
22/02:30pm 16.7 8.3 5.6 48 5.3 W 39 54 21 29 1007.8 - 0.0
22/02:00pm 17.1 10.4 5.7 47 5.5 W 30 44 16 24 1007.6 1007.5 0.0
22/01:30pm 17.4 11.7 8.3 55 4.7 W 28 39 15 21 1007.4 - 0.0
22/01:11pm 17.4 11.3 8.3 55 4.7 WSW 30 50 16 27 1007.0 - 0.0
22/01:00pm 17.1 11.1 8.5 57 4.4 WSW 30 41 16 22 1006.9 1006.8 0.0
22/12:30pm 17.1 11.1 8.8 58 4.3 SW 30 37 16 20 1006.5 - 0.0
22/12:00pm 17.6 13.5 10.2 62 3.9 WSW 22 30 12 16 1006.2 1006.1 0.0
22/11:30am 17.6 13.1 10.0 61 4.0 WSW 24 33 13 18 1006.0 - 0.0
22/11:00am 17.8 12.0 9.4 58 4.4 W 30 39 16 21 1005.7 1005.6 0.0
22/10:30am 18.4 13.9 8.7 53 5.0 W 22 32 12 17 1005.3 - 0.0
22/10:00am 17.7 13.4 8.0 53 5.0 WNW 20 33 11 18 1005.3 1005.2 0.0
22/09:30am 17.3 12.1 8.7 57 4.4 W 26 41 14 22 1005.1 - 0.0
22/09:00am 17.5 13.6 8.6 56 4.6 WNW 19 30 10 16 1005.1 1005.0 2.6
22/08:30am 17.2 12.8 9.1 59 4.2 WNW 22 32 12 17 1004.7 - 2.6
22/08:00am 17.1 14.5 9.5 61 4.0 W 13 20 7 11 1004.7 1004.6 2.6
22/07:30am 17.1 15.7 9.0 59 4.2 WNW 6 9 3 5 1004.2 - 2.6
22/07:00am 17.6 16.5 10.0 61 4.0 N 6 9 3 5 1003.9 1003.8 2.6
22/06:30am 16.8 15.6 9.5 62 3.8 NNW 6 9 3 5 1003.5 - 2.6
22/06:00am 17.2 15.4 10.8 66 3.4 N 11 17 6 9 1003.0 1002.9 2.6
22/05:30am 17.3 15.4 10.4 64 3.7 N 11 20 6 11 1003.0 - 2.6
22/05:00am 15.7 14.1 11.5 76 2.3 N 11 15 6 8 1002.6 1002.5 2.6
22/04:30am 15.4 13.2 10.8 74 2.4 N 13 20 7 11 1002.3 - 2.6
22/04:00am 15.1 13.4 11.1 77 2.1 NNW 11 19 6 10 1002.1 1002.0 2.6
22/03:30am 14.3 12.6 11.1 81 1.7 NNW 11 22 6 12 1001.9 - 2.6
22/03:00am 13.0 10.4 10.7 86 1.2 N 15 24 8 13 1002.2 1002.1 2.6
22/02:30am 13.0 9.6 10.5 85 1.3 N 19 28 10 15 1002.5 - 2.6
22/02:00am 14.1 9.6 11.4 84 1.4 N 26 35 14 19 1002.7 1002.6 2.6
22/01:30am 12.9 8.7 11.0 88 1.0 NNE 24 32 13 17 1003.1 - 2.6
22/01:00am 12.4 7.7 10.6 89 0.9 NNE 26 30 14 16 1004.0 1003.9 2.6
22/12:30am 12.0 8.0 10.6 91 0.7 NE 22 24 12 13 1004.7 - 2.6
22/12:00am 12.0 8.6 10.7 92 0.7 NNE 19 26 10 14 1005.9 1005.8 2.6
 
Date/Time
EST
Tmp

°C
App
Tmp
°C
Dew
Point
°C
Rel
Hum
%
Delta-T

°C
Wind Press
QNH
hPa
Press
MSL
hPa
Rain
since
9 am
mm
Dir
 
Spd
km/h
Gust
km/h
Spd
kts
Gust
kts
21/11:30pm 11.6 8.0 10.5 93 0.6 NNE 20 26 11 14 1006.7 - 2.6
21/11:00pm 11.6 8.1 10.3 92 0.7 NE 19 22 10 12 1007.6 1007.5 2.4
21/10:30pm 11.9 8.3 10.6 92 0.7 N 20 26 11 14 1008.4 - 1.8
21/10:00pm 11.5 7.4 10.2 92 0.7 NNE 22 26 12 14 1009.3 1009.3 1.8
21/09:30pm 11.8 8.2 10.4 91 0.7 NNE 20 28 11 15 1009.7 - 1.2
21/09:00pm 11.7 7.8 9.3 85 1.2 NNE 20 24 11 13 1010.1 1010.1 0.8
21/08:30pm 12.5 8.7 9.7 83 1.4 NNE 20 30 11 16 1010.4 - 0.0
21/08:00pm 12.8 8.5 9.4 80 1.7 N 22 26 12 14 1010.7 1010.7 0.0
21/07:30pm 12.8 8.7 8.5 75 2.1 NNE 20 24 11 13 1010.8 - 0.0
21/07:00pm 12.9 8.6 7.8 71 2.5 NNE 20 22 11 12 1011.4 1011.4 0.0
21/06:30pm 12.9 8.5 7.6 70 2.6 NNE 20 26 11 14 1011.6 - 0.0
21/06:00pm 12.9 8.0 7.1 68 2.8 NNE 22 28 12 15 1011.6 1011.6 0.0
21/05:30pm 13.3 8.1 7.3 67 2.9 NNE 24 30 13 16 1012.0 - 0.0
21/05:00pm 13.6 8.4 7.4 66 3.0 NNE 24 28 13 15 1012.4 1012.4 0.0
21/04:30pm 13.6 9.1 6.0 60 3.6 NE 19 22 10 12 1012.8 - 0.0
21/04:00pm 13.9 9.3 6.3 60 3.6 NNE 20 24 11 13 1013.1 1013.1 0.0
21/03:30pm 13.3 10.2 3.7 52 4.3 ENE 9 11 5 6 1013.5 - 0.0
21/03:00pm 13.5 10.1 4.1 53 4.3 NE 11 17 6 9 1013.7 1013.7 0.0
21/02:30pm 13.4 9.6 3.8 52 4.3 NE 13 17 7 9 1014.2 - 0.0
21/02:00pm 13.3 8.7 3.7 52 4.3 NE 17 20 9 11 1014.7 1014.7 0.0
21/01:30pm 13.3 8.7 3.9 53 4.3 NE 17 20 9 11 1015.0 - 0.0
21/01:00pm 13.2 9.9 2.4 48 4.7 NNE 9 13 5 7 1015.6 1015.6 0.0
21/12:30pm 12.6 9.0 2.7 51 4.3 NNE 11 17 6 9 1016.0 - 0.0
21/12:00pm 13.1 9.4 2.6 49 4.6 NNE 11 15 6 8 1016.7 1016.7 0.0
21/11:30am 12.8 8.4 2.9 51 4.4 NNE 15 19 8 10 1017.0 - 0.0
21/11:00am 12.5 8.4 4.2 57 3.7 NNE 15 19 8 10 1017.7 1017.7 0.0
21/10:30am 12.2 9.4 5.1 62 3.3 N 9 13 5 7 1018.1 - 0.0
21/10:00am 11.3 8.8 4.5 63 3.1 NNE 7 11 4 6 1018.1 1018.1 0.0
21/09:30am 10.7 8.4 4.8 67 2.7 NNW 6 9 3 5 1018.3 - 0.0
21/09:00am 10.4 7.8 3.2 61 3.1 N 6 7 3 4 1018.4 1018.4 0.0
21/08:30am 10.0 7.5 3.7 65 2.8 N 6 11 3 6 1018.7 - 0.0
21/08:00am 9.1 7.1 2.4 63 2.8 WSW 2 4 1 2 1018.6 1018.6 0.0
21/07:30am 7.7 5.8 2.6 70 2.1 S 2 6 1 3 1018.3 - 0.0
21/07:00am 7.0 4.2 3.1 76 1.6 SSW 7 7 4 4 1018.1 1018.1 0.0
21/06:30am 7.5 5.2 2.8 72 2.0 W 4 6 2 3 1017.9 - 0.0
21/06:00am 7.1 4.4 2.4 72 1.9 WSW 6 7 3 4 1017.6 1017.6 0.0
21/05:30am 7.4 4.6 2.3 70 2.1 WSW 6 6 3 3 1017.5 - 0.0
21/05:00am 6.7 4.0 2.4 74 1.8 SW 6 7 3 4 1017.3 1017.3 0.0
21/04:30am 6.7 4.0 2.6 75 1.7 SSE 6 7 3 4 1017.0 - 0.0
21/04:00am 7.4 4.2 3.3 75 1.7 WSW 9 15 5 8 1016.9 1016.9 0.0
21/03:30am 7.0 4.4 3.1 76 1.6 WSW 6 7 3 4 1016.6 - 0.0
21/03:00am 7.3 4.0 2.6 72 1.9 W 9 13 5 7 1016.6 1016.6 0.0
21/02:30am 7.3 3.9 2.0 69 2.2 W 9 13 5 7 1016.7 - 0.0
21/02:00am 7.9 5.2 2.4 68 2.3 W 6 9 3 5 1016.8 1016.8 0.0
21/01:30am 8.5 4.5 3.1 69 2.3 W 13 17 7 9 1016.5 - 0.0
21/01:00am 8.5 4.2 3.4 70 2.2 W 15 19 8 10 1016.3 1016.3 0.0
21/12:30am 7.8 4.6 2.9 71 2.1 W 9 11 5 6 1016.0 - 0.0
21/12:00am 8.9 5.7 3.1 67 2.5 W 9 13 5 7 1015.8 1015.8 0.0
 
Date/Time
EST
Tmp

°C
App
Tmp
°C
Dew
Point
°C
Rel
Hum
%
Delta-T

°C
Wind Press
QNH
hPa
Press
MSL
hPa
Rain
since
9 am
mm
Dir
 
Spd
km/h
Gust
km/h
Spd
kts
Gust
kts
20/11:30pm 9.7 5.9 3.7 66 2.6 WNW 13 17 7 9 1015.5 - 0.0
20/11:00pm 9.9 4.6 3.0 62 3.0 W 20 28 11 15 1015.4 1015.4 0.0
20/10:30pm 10.5 4.9 3.5 62 3.1 W 22 30 12 16 1015.2 - 0.0

Latest Capital City Observations: Canberra | Sydney | Melbourne | Brisbane | Adelaide | Perth | Hobart | Darwin

Other Formats:

Comma delimited format used in spreadsheet applications
http://www.bom.gov.au/fwo/IDT60901/IDT60901.94988.axf

JavaScript Object Notation format (JSON) in row-major order
http://www.bom.gov.au/fwo/IDT60901/IDT60901.94988.json